EW7771 Weather Reports


Display with metric or nautical units.
time (UTC)temp
F
wind
direction
speed
MPH
gust
MPH
rain 1hr
in
rain 24hr
in
rain mn
in
humidity
%
barometer
mb
20260505230414 61 180 0.0 0.0 0.00 0.00 0.00 78 1014.1
20260505225908 61 269 0.0 0.0 0.00 0.00 0.00 79 1014.2
20260505225403 61 77 0.0 0.0 0.00 0.00 0.00 79 1014.3
20260505224857 61 134 0.0 0.0 0.00 0.00 0.00 80 1014.3
20260505224353 61 153 0.0 0.0 0.00 0.00 0.00 79 1014.3
20260505223845 60 155 0.0 1.0 0.00 0.00 0.00 80 1014.4
20260505223338 60 188 0.0 1.0 0.00 0.00 0.00 79 1014.4
20260505222833 60 318 0.0 0.0 0.00 0.00 0.00 80 1014.5
20260505222553 60 180 0.0 0.0 0.00 0.00 0.00 81 1014.4
20260505221820 60 161 0.0 0.0 0.00 0.00 0.00 80 1014.5
20260505221314 60 144 0.0 0.0 0.00 0.00 0.00 81 1014.5
20260505220808 60 143 0.0 0.0 0.00 0.00 0.00 81 1014.5
20260505220302 60 138 0.0 0.0 0.00 0.00 0.00 80 1014.6
20260505215757 60 188 0.0 0.0 0.00 0.00 0.00 80 1014.6
20260505215252 60 161 0.0 0.0 0.00 0.00 0.00 81 1014.6
20260505214745 60 150 0.0 0.0 0.00 0.00 0.00 80 1014.6
20260505214238 60 194 0.0 0.0 0.00 0.00 0.00 81 1014.6
20260505213731 60 184 0.0 0.0 0.00 0.00 0.00 80 1014.6
20260505213228 60 119 0.0 0.0 0.00 0.00 0.00 81 1014.6
20260505212720 60 144 0.0 2.0 0.00 0.00 0.00 81 1014.6
20260505212215 59 210 0.0 4.0 0.00 0.00 0.00 82 1014.6
20260505211931 59 140 0.0 4.0 0.00 0.00 0.00 81 1014.6
20260505211203 59 177 0.0 3.0 0.00 0.00 0.00 82 1014.6
20260505210656 59 129 0.0 0.0 0.00 0.00 0.00 81 1014.6
20260505210150 59 173 0.0 0.0 0.00 0.00 0.00 81 1014.7
20260505205644 59 157 0.0 0.0 0.00 0.00 0.00 81 1014.7
20260505205139 59 161 0.0 0.0 0.00 0.00 0.00 82 1014.8
20260505204632 59 150 0.0 1.0 0.00 0.00 0.00 81 1014.8
20260505204126 59 155 0.0 1.0 0.00 0.00 0.00 82 1014.7
20260505203620 59 178 0.0 0.0 0.00 0.00 0.00 82 1014.7
20260505203116 59 146 0.0 5.0 0.00 0.00 0.00 82 1014.8
20260505202608 59 173 0.0 5.0 0.00 0.00 0.00 82 1014.7
20260505202102 59 59 0.0 1.0 0.00 0.00 0.00 81 1014.7
20260505201556 59 302 0.0 1.0 0.00 0.00 0.00 83 1014.7
20260505201051 59 302 0.0 1.0 0.00 0.00 0.00 82 1014.7
20260505200544 58 115 0.0 0.0 0.00 0.00 0.00 83 1014.8
20260505200300 58 174 0.0 1.0 0.00 0.00 0.00 84 1014.7
20260505195533 58 311 0.0 1.0 0.00 0.00 0.00 84 1014.8
20260505195026 58 39 0.0 0.0 0.00 0.00 0.00 85 1014.8
20260505194521 58 136 0.0 0.0 0.00 0.00 0.00 85 1014.8
20260505194014 57 137 0.0 1.0 0.00 0.00 0.00 84 1014.8
20260505193508 57 132 0.0 1.0 0.00 0.00 0.00 85 1014.8
20260505193002 57 132 0.0 0.0 0.00 0.00 0.00 84 1014.8
20260505192714 57 146 0.0 0.0 0.00 0.00 0.00 84 1014.8
20260505191950 57 290 0.0 1.0 0.00 0.00 0.00 85 1014.7
20260505191713 57 311 0.0 1.0 0.00 0.00 0.00 85 1014.8
20260505190939 57 115 0.0 0.0 0.00 0.00 0.00 85 1014.8
20260505190656 57 121 0.0 0.0 0.00 0.00 0.00 85 1014.8
20260505185926 57 31 0.0 0.0 0.00 0.00 0.00 85 1014.8
20260505185421 57 30 0.0 0.0 0.00 0.00 0.00 84 1014.8
20260505184914 57 164 0.0 0.0 0.00 0.00 0.00 84 1014.7
20260505184410 57 150 0.0 0.0 0.00 0.00 0.00 85 1014.7
20260505184128 57 158 0.0 0.0 0.00 0.00 0.00 84 1014.7
20260505183357 57 105 0.0 0.0 0.00 0.00 0.00 86 1014.7
20260505183344 57 105 0.0 0.0 0.00 0.00 0.00 85 1014.7
20260505182346 57 57 0.0 1.0 0.00 0.00 0.00 84 1014.7
20260505181839 57 325 0.0 1.0 0.00 0.00 0.00 85 1014.7
20260505181332 57 226 0.0 0.0 0.00 0.00 0.00 84 1014.7
20260505180826 57 226 0.0 3.0 0.00 0.00 0.00 85 1014.7
20260505180322 57 193 0.0 3.0 0.00 0.00 0.00 83 1014.7
20260505180034 57 187 0.0 2.0 0.00 0.00 0.00 83 1014.7
20260505175538 57 191 0.0 2.0 0.00 0.00 0.00 84 1014.6
20260505174802 57 190 0.0 1.0 0.00 0.00 0.00 84 1014.6
20260505174258 57 190 0.0 1.0 0.00 0.00 0.00 83 1014.6
20260505173751 57 342 0.0 1.0 0.00 0.00 0.00 84 1014.6
20260505173251 57 45 0.0 0.0 0.00 0.00 0.00 84 1014.6
20260505172750 56 46 0.0 0.0 0.00 0.00 0.00 83 1014.6
20260505172508 56 313 0.0 0.0 0.00 0.00 0.00 84 1014.6
20260505172006 56 313 0.0 0.0 0.00 0.00 0.00 85 1014.6
20260505171514 56 313 0.0 0.0 0.00 0.00 0.00 85 1014.6
20260505170750 56 312 0.0 0.0 0.00 0.00 0.00 85 1014.5
20260505170248 56 312 0.0 0.0 0.00 0.00 0.00 86 1014.5
20260505165749 56 312 0.0 0.0 0.00 0.00 0.00 86 1014.6
20260505165250 56 312 0.0 0.0 0.00 0.00 0.00 86 1014.6
20260505164749 56 312 0.0 0.0 0.00 0.00 0.00 87 1014.5
20260505164251 56 312 0.0 0.0 0.00 0.00 0.00 87 1014.5
20260505163750 55 312 0.0 0.0 0.00 0.00 0.00 87 1014.5
20260505163740 55 343 0.0 0.0 0.00 0.00 0.00 87 1014.5
20260505162749 55 343 0.0 0.0 0.00 0.00 0.00 87 1014.5
20260505162249 55 343 0.0 0.0 0.00 0.00 0.00 87 1014.5
20260505161748 55 343 0.0 0.0 0.00 0.00 0.00 87 1014.5
20260505161248 55 343 0.0 0.0 0.00 0.00 0.00 87 1014.4
20260505161018 55 343 0.0 0.0 0.00 0.00 0.00 87 1014.5
20260505160255 55 343 0.0 0.0 0.00 0.00 0.00 87 1014.5
20260505153219 54 42 0.0 4.0 0.00 0.00 0.00 87 1014.4
20260505152713 54 177 0.0 5.0 0.00 0.00 0.00 87 1014.4
20260505152207 54 304 0.0 5.0 0.00 0.00 0.00 88 1014.4
20260505151919 54 146 0.0 1.0 0.00 0.00 0.00 88 1014.3
20260505151155 54 146 0.0 0.0 0.00 0.00 0.00 89 1014.2
20260505150651 54 146 0.0 0.0 0.00 0.00 0.00 89 1014.2
20260505150347 54 161 0.0 0.0 0.00 0.00 0.00 89 1014.1
20260505150230 54 146 0.0 0.0 0.00 0.00 0.00 89 1014.1
20260505124907 52 88 0.0 0.0 0.00 0.00 0.00 94 1012.9
20260505124405 52 106 0.0 0.0 0.00 0.00 0.00 94 1012.9
20260505123855 52 106 0.0 0.0 0.00 0.00 0.00 94 1012.8
20260505123351 52 106 0.0 0.0 0.00 0.00 0.00 94 1012.8
20260505122843 52 106 0.0 0.0 0.00 0.00 0.00 94 1012.8
20260505122336 52 106 0.0 0.0 0.00 0.00 0.00 95 1012.7
20260505121831 52 106 0.0 0.0 0.00 0.00 0.00 95 1012.7
20260505121329 52 108 0.0 0.0 0.00 0.00 0.00 95 1012.6
20260505121035 51 86 0.0 0.0 0.00 0.00 0.00 95 1012.6
20260505120312 51 86 0.0 0.0 0.00 0.00 0.00 95 1012.5
20260505115808 51 86 0.0 0.0 0.00 0.00 0.00 95 1012.5
20260505115305 51 86 0.0 0.0 0.00 0.00 0.00 95 1012.5
20260505114752 51 86 0.0 0.0 0.00 0.00 0.00 95 1012.5
20260505114246 51 86 0.0 0.0 0.00 0.00 0.00 95 1012.5
20260505113744 51 86 0.0 0.0 0.00 0.00 0.00 95 1012.5
20260505113240 51 196 0.0 0.0 0.00 0.00 0.00 95 1012.5
20260505112738 51 196 0.0 0.0 0.00 0.00 0.00 94 1012.5
20260505112238 51 196 0.0 0.0 0.00 0.00 0.00 94 1012.4
20260505111739 51 196 0.0 0.0 0.00 0.00 0.00 94 1012.4
20260505111239 51 196 0.0 0.0 0.00 0.00 0.00 94 1012.4
20260505110737 51 196 0.0 0.0 0.00 0.00 0.00 94 1012.3
20260505110508 51 196 0.0 0.0 0.00 0.00 0.00 94 1012.2
20260505101732 51 100 0.0 0.0 0.00 0.00 0.00 92 1011.9
20260505101506 52 100 0.0 0.0 0.00 0.00 0.00 92 1011.8
20260505100727 52 100 0.0 0.0 0.00 0.00 0.00 92 1011.8
20260505100453 52 100 0.0 0.0 0.00 0.00 0.00 92 1011.8
20260505095952 52 100 0.0 0.0 0.00 0.00 0.00 92 1011.7
20260505095220 52 100 0.0 0.0 0.00 0.00 0.00 93 1011.7
20260505094720 52 100 0.0 0.0 0.00 0.00 0.00 93 1011.6
20260505094219 52 103 0.0 0.0 0.00 0.00 0.00 92 1011.5
20260505093722 52 171 0.0 0.0 0.00 0.00 0.00 93 1011.5
20260505093220 52 171 0.0 0.0 0.00 0.00 0.00 92 1011.5
20260505092949 52 171 0.0 0.0 0.00 0.00 0.00 92 1011.5
20260505092447 52 171 0.0 0.0 0.00 0.00 0.00 92 1011.4
20260505091723 53 171 0.0 0.0 0.00 0.00 0.00 92 1011.4
20260505091707 53 171 0.0 0.0 0.00 0.00 0.00 92 1011.4
20260505091203 53 171 0.0 0.0 0.00 0.00 0.00 91 1011.3
20260505090220 53 171 0.0 0.0 0.00 0.00 0.00 91 1011.4
20260505085722 53 171 0.0 0.0 0.00 0.00 0.00 91 1011.4
20260505085444 53 171 0.0 0.0 0.00 0.00 0.00 91 1011.3
20260505084722 53 171 0.0 0.0 0.00 0.00 0.00 91 1011.3
20260505084227 53 171 0.0 0.0 0.00 0.00 0.00 91 1011.4
20260505083730 53 171 0.0 0.0 0.00 0.00 0.00 91 1011.3
20260505083218 53 227 0.0 0.0 0.00 0.00 0.00 90 1011.2
20260505082712 54 227 0.0 0.0 0.00 0.00 0.00 90 1011.2
20260505082213 54 227 0.0 0.0 0.00 0.00 0.00 90 1011.1
20260505081708 54 227 0.0 0.0 0.00 0.00 0.00 90 1011.2
20260505081202 54 227 0.0 0.0 0.00 0.00 0.00 90 1011.1
20260505080655 54 227 0.0 0.0 0.00 0.00 0.00 89 1011.1
20260505080152 54 227 0.0 0.0 0.00 0.00 0.00 89 1011.1
20260505075644 54 227 0.0 0.0 0.00 0.00 0.00 89 1011.0
20260505075138 54 227 0.0 0.0 0.00 0.00 0.00 89 1010.9
20260505074629 55 227 0.0 0.0 0.00 0.00 0.00 89 1010.9
20260505074128 55 227 0.0 0.0 0.00 0.00 0.00 88 1010.8
20260505073620 55 227 0.0 0.0 0.00 0.00 0.00 88 1010.9
20260505073114 55 209 0.0 0.0 0.00 0.00 0.00 88 1010.8
20260505072608 55 209 0.0 0.0 0.00 0.00 0.00 87 1010.7
20260505072104 55 209 0.0 0.0 0.00 0.00 0.00 87 1010.7
20260505071554 56 209 0.0 0.0 0.00 0.00 0.00 86 1010.6
20260505071053 56 209 0.0 0.0 0.00 0.00 0.00 85 1010.6
20260505070549 56 209 0.0 0.0 0.00 0.00 0.00 85 1010.5
20260505070040 56 209 0.0 0.0 0.00 0.00 0.00 84 1010.5
20260505065533 56 209 0.0 0.0 0.00 0.00 0.00 83 1010.4
20260505065028 56 209 0.0 0.0 0.00 0.00 0.00 84 1010.4
20260505064524 57 209 0.0 0.0 0.00 0.00 0.00 84 1010.4
20260505064016 57 209 0.0 0.0 0.00 0.00 0.00 83 1010.3
20260505063510 57 209 0.0 0.0 0.00 0.00 0.00 83 1010.2
20260505063005 57 209 0.0 0.0 0.00 0.00 0.00 82 1010.2
20260505062459 57 209 0.0 0.0 0.00 0.00 0.00 83 1010.1
20260505061953 57 209 0.0 0.0 0.00 0.00 0.00 82 1010.1
20260505061446 58 209 0.0 0.0 0.00 0.00 0.00 82 1010.1
20260505060939 58 209 0.0 9.0 0.00 0.00 0.00 81 1010.0
20260505060436 58 209 0.0 9.0 0.00 0.00 0.00 81 1010.1
20260505055928 58 182 0.0 0.0 0.00 0.00 0.00 81 1010.0
20260505055423 58 171 0.0 0.0 0.00 0.00 0.00 80 1010.0
20260505055135 58 171 0.0 0.0 0.00 0.00 0.00 80 1009.9
20260505054413 58 171 0.0 0.0 0.00 0.00 0.00 79 1009.8
20260505053904 58 122 0.0 0.0 0.00 0.00 0.00 79 1009.8
20260505053358 58 64 0.0 0.0 0.00 0.00 0.00 78 1009.8
20260505052848 58 64 0.0 0.0 0.00 0.00 0.00 78 1009.8
20260505052349 59 64 0.0 0.0 0.00 0.00 0.00 77 1009.8
20260505051843 59 64 0.0 0.0 0.00 0.00 0.00 77 1009.7
20260505051334 59 64 0.0 0.0 0.00 0.00 0.00 77 1009.5
20260505050828 59 64 0.0 0.0 0.00 0.00 0.00 75 1009.5
20260505050327 59 236 0.0 0.0 0.00 0.00 0.00 75 1009.4
20260505041318 62 236 0.0 0.0 0.00 0.00 0.00 69 1009.0
20260505040818 63 236 0.0 0.0 0.00 0.00 0.00 69 1008.9
20260505040318 63 236 0.0 0.0 0.00 0.00 0.00 68 1008.8
20260505035816 64 236 0.0 0.0 0.00 0.00 0.00 68 1008.8
20260505035317 64 236 0.0 0.0 0.00 0.00 0.00 68 1008.8
20260505035045 65 236 0.0 0.0 0.00 0.00 0.00 68 1008.7
20260505034318 65 236 0.0 0.0 0.00 0.00 0.00 67 1008.6
20260505033816 65 236 0.0 0.0 0.00 0.00 0.00 66 1008.5
20260505033541 66 236 0.0 0.0 0.00 0.00 0.00 66 1008.4
20260505032818 66 236 0.0 0.0 0.00 0.00 0.00 65 1008.4
20260505032315 67 236 0.0 0.0 0.00 0.00 0.00 65 1008.4
20260505031818 67 236 0.0 0.0 0.00 0.00 0.00 64 1008.3
20260505031307 68 236 0.0 0.0 0.00 0.00 0.00 62 1008.3
20260505030807 68 236 0.0 0.0 0.00 0.00 0.00 62 1008.3
20260505030524 69 236 0.0 0.0 0.00 0.00 0.00 61 1008.2
20260505030019 69 192 0.0 0.0 0.00 0.00 0.00 61 1008.1
20260505025247 70 192 0.0 0.0 0.00 0.00 0.00 60 1008.1
20260505024743 70 192 0.0 0.0 0.00 0.00 0.00 56 1008.0
20260505024235 71 192 0.0 0.0 0.00 0.00 0.00 55 1008.0
20260505023729 71 125 0.0 0.0 0.00 0.00 0.00 54 1008.0
20260505023219 72 125 0.0 0.0 0.00 0.00 0.00 51 1008.0
20260505022716 72 125 0.0 0.0 0.00 0.00 0.00 53 1007.9
20260505022207 73 125 0.0 0.0 0.00 0.00 0.00 48 1007.9
20260505021707 73 125 0.0 0.0 0.00 0.00 0.00 48 1007.9
20260505021159 73 125 0.0 0.0 0.00 0.00 0.00 46 1007.9
20260505020652 74 125 0.0 0.0 0.00 0.00 0.00 47 1007.9
20260505020144 74 125 0.0 0.0 0.00 0.00 0.00 44 1007.9
20260505015640 74 125 0.0 1.0 0.00 0.00 0.00 41 1008.0
20260505015135 74 163 0.0 1.0 0.00 0.00 0.00 42 1007.9
20260505014629 75 259 0.0 0.0 0.00 0.00 0.00 40 1007.9
20260505014124 75 285 0.0 0.0 0.00 0.00 0.00 42 1007.9
20260505013620 75 285 0.0 0.0 0.00 0.00 0.00 41 1007.9
20260505013111 76 223 0.0 0.0 0.00 0.00 0.00 42 1007.9
20260505012605 76 223 0.0 0.0 0.00 0.00 0.00 42 1008.0
20260505012314 76 194 0.0 0.0 0.00 0.00 0.00 42 1008.0
20260505011556 76 227 0.0 0.0 0.00 0.00 0.00 39 1007.9
20260505011047 76 273 0.0 0.0 0.00 0.00 0.00 37 1007.9
20260505010541 76 281 0.0 0.0 0.00 0.00 0.00 39 1008.0
20260505010035 77 259 0.0 0.0 0.00 0.00 0.00 40 1008.0
20260505005532 77 11 0.0 0.0 0.00 0.00 0.00 40 1008.0
20260505005020 77 157 0.0 0.0 0.00 0.00 0.00 39 1008.0
20260505004517 77 63 0.0 0.0 0.00 0.00 0.00 38 1008.0
20260505004011 77 355 0.0 0.0 0.00 0.00 0.00 37 1008.0
20260505003506 78 289 0.0 2.0 0.00 0.00 0.00 39 1007.9
20260505003000 78 294 0.0 2.0 0.00 0.00 0.00 37 1007.9
20260505002452 78 23 0.0 1.0 0.00 0.00 0.00 38 1007.9
20260505001947 78 253 0.0 9.0 0.00 0.00 0.00 38 1007.9
20260505001711 78 165 0.0 9.0 0.00 0.00 0.00 35 1007.9
20260505000935 78 284 0.0 1.0 0.00 0.00 0.00 34 1007.9
20260505000429 79 277 0.0 0.0 0.00 0.00 0.00 36 1007.9
20260505000406 79 36 0.0 0.0 0.00 0.00 0.00 36 1007.9
20260504235420 79 248 0.0 0.0 0.00 0.00 0.00 35 1008.0
20260504234908 79 5 0.0 0.0 0.00 0.00 0.00 36 1007.9
20260504234405 80 236 0.0 0.0 0.00 0.00 0.00 34 1007.9
20260504233855 80 301 0.0 0.0 0.00 0.00 0.00 35 1007.9
20260504233355 81 126 0.0 0.0 0.00 0.00 0.00 35 1008.0
20260504232847 81 227 0.0 0.0 0.00 0.00 0.00 34 1007.9
20260504232341 82 65 0.0 0.0 0.00 0.00 0.00 34 1007.9
20260504232058 82 5 0.0 0.0 0.00 0.00 0.00 35 1008.0
20260504231331 82 190 0.0 0.0 0.00 0.00 0.00 33 1008.0
20260504230823 82 109 0.0 1.0 0.00 0.00 0.00 34 1008.0